Total_Precipitation_Accumulation
2.29 2.62 2.98 3.32 3.85 3.94 3.85 3.95 4.16 4.39 4.54 4.84 4.96 5.25 5.56 5.77 5.94 5.89 5.66 5.67 5.61 5.71 5.80 5.63 5.49 5.36 5.33 5.26 5.23 5.09 4.87 4.58 4.54 4.49 4.10 3.56 3.33 3.33 3.29 3.29 3.36 3.38 3.34
2.62 2.83 3.01 3.44 3.96 4.19 4.25 4.31 4.50 4.84 5.06 5.34 5.80 6.09 6.39 6.66 6.85 6.88 6.42 6.13 5.98 5.88 5.78 5.89 5.85 5.71 5.60 5.45 5.26 5.16 4.96 4.59 4.50 4.52 4.48 3.96 3.65 3.25 2.86 2.86 2.93 3.08 3.26
2.81 2.90 2.97 3.38 3.74 4.00 4.18 4.40 4.65 5.12 5.68 6.07 6.49 6.82 7.05 7.10 6.91 6.60 6.51 6.32 6.13 5.98 5.80 5.71 5.55 5.47 5.36 5.30 5.16 4.94 4.77 4.54 4.41 4.36 4.55 4.23 3.80 3.36 3.05 2.67 2.62 2.78 2.91
2.72 2.86 2.99 3.29 3.64 3.94 4.13 4.48 5.04 5.77 6.30 6.71 7.25 7.77 7.88 7.60 7.23 6.77 6.33 6.08 5.85 5.54 5.30 5.23 5.17 5.05 4.71 4.55 4.42 4.39 4.24 4.11 3.93 3.98 3.88 3.74 3.58 3.60 3.49 3.22 2.98 2.91 2.89
2.40 2.66 2.83 3.05 3.55 3.85 4.10 4.46 5.07 5.83 6.54 7.35 7.96 8.38 8.24 7.85 7.38 6.69 6.11 5.66 5.30 4.95 4.67 4.56 4.48 4.26 3.86 3.54 3.46 3.65 3.69 3.68 3.59 3.60 3.60 3.60 3.46 3.35 3.36 3.33 3.25 3.19 2.98
2.16 2.30 2.49 2.85 3.36 3.65 3.84 4.20 4.85 5.63 6.30 6.88 7.39 7.65 7.52 7.30 6.74 6.05 5.44 5.04 4.74 4.41 4.02 3.68 3.49 3.25 3.06 2.88 2.88 2.97 3.05 3.29 3.39 3.53 3.52 3.52 3.42 3.24 3.25 3.16 3.14 3.22 3.11
2.03 2.06 2.23 2.51 2.92 3.08 3.43 3.83 4.28 4.96 5.40 5.71 6.08 6.29 6.38 6.17 5.82 5.33 4.87 4.45 3.98 3.63 3.31 3.01 2.91 2.78 2.69 2.62 2.64 2.67 2.64 2.76 2.95 3.08 3.18 3.24 3.21 3.20 3.23 3.32 3.28 3.15 2.98
2.06 2.08 2.23 2.42 2.67 2.86 3.03 3.18 3.46 3.86 4.03 4.08 4.32 4.60 4.66 4.62 4.48 4.20 3.83 3.54 3.19 2.82 2.61 2.40 2.25 2.24 2.31 2.25 2.35 2.39 2.41 2.42 2.48 2.54 2.81 2.92 2.89 2.94 2.92 2.97 3.11 3.17 2.99
1.88 2.04 2.15 2.19 2.21 2.25 2.32 2.42 2.60 2.77 2.84 2.93 3.03 3.19 3.23 3.22 3.18 3.05 2.80 2.58 2.43 2.15 2.00 1.91 1.88 1.86 1.93 2.06 2.11 2.06 2.10 2.22 2.25 2.29 2.44 2.45 2.42 2.50 2.58 2.69 2.81 3.03 3.02
1.73 1.91 2.04 2.02 2.02 1.94 2.00 2.07 2.17 2.24 2.25 2.32 2.33 2.30 2.34 2.36 2.37 2.25 2.13 2.07 1.98 1.85 1.81 1.74 1.68 1.64 1.63 1.67 1.77 1.83 1.88 1.92 2.04 2.12 2.16 2.16 2.09 2.15 2.24 2.43 2.59 2.68 2.75
1.73 1.91 1.91 1.86 1.84 1.80 1.83 1.89 1.88 1.89 1.86 1.84 1.88 1.90 1.84 1.86 1.95 1.94 1.83 1.81 1.77 1.63 1.59 1.52 1.44 1.39 1.38 1.43 1.55 1.59 1.63 1.69 1.80 1.91 1.92 1.94 1.93 2.01 2.02 2.06 2.11 2.26 2.39
1.84 1.84 1.78 1.73 1.65 1.67 1.70 1.77 1.71 1.66 1.71 1.63 1.59 1.61 1.65 1.64 1.69 1.68 1.58 1.57 1.62 1.55 1.52 1.41 1.31 1.23 1.22 1.26 1.31 1.33 1.37 1.51 1.57 1.61 1.67 1.65 1.70 1.77 1.74 1.79 1.81 1.91 2.07
2.17 2.01 1.83 1.78 1.74 1.69 1.63 1.53 1.52 1.53 1.57 1.59 1.55 1.52 1.55 1.59 1.58 1.56 1.56 1.53 1.57 1.54 1.44 1.29 1.22 1.16 1.12 1.13 1.17 1.23 1.26 1.33 1.41 1.42 1.48 1.50 1.56 1.52 1.45 1.50 1.60 1.65 1.71
2.44 2.23 1.99 1.90 1.85 1.78 1.71 1.60 1.57 1.45 1.43 1.45 1.48 1.52 1.57 1.62 1.62 1.65 1.67 1.61 1.52 1.45 1.37 1.30 1.23 1.17 1.10 1.10 1.11 1.12 1.24 1.28 1.29 1.27 1.29 1.27 1.30 1.34 1.39 1.41 1.56 1.64 1.77
2.34 2.28 2.19 2.10 1.99 1.84 1.77 1.65 1.55 1.42 1.40 1.37 1.41 1.46 1.51 1.56 1.52 1.59 1.60 1.59 1.58 1.45 1.39 1.31 1.24 1.14 1.02 0.94 0.96 0.99 1.06 1.18 1.20 1.19 1.14 1.12 1.16 1.25 1.28 1.24 1.37 1.53 1.70
2.48 2.36 2.25 2.11 2.07 1.93 1.80 1.68 1.60 1.54 1.50 1.47 1.43 1.40 1.42 1.39 1.37 1.38 1.44 1.42 1.40 1.41 1.36 1.25 1.12 1.04 0.92 0.93 0.91 0.93 1.01 1.10 1.15 1.11 1.09 1.05 1.03 1.06 1.10 1.08 1.16 1.34 1.48
2.66 2.45 2.37 2.24 2.15 2.11 2.02 1.88 1.71 1.62 1.42 1.34 1.33 1.26 1.24 1.23 1.25 1.23 1.26 1.32 1.40 1.40 1.32 1.20 1.15 1.10 1.01 0.90 0.80 0.84 0.94 1.07 1.06 1.06 1.10 0.97 0.87 0.98 1.00 1.03 1.04 1.07 1.13
2.88 2.62 2.44 2.32 2.23 2.14 1.98 1.78 1.61 1.44 1.28 1.24 1.23 1.16 1.10 1.11 1.20 1.18 1.18 1.27 1.31 1.30 1.30 1.28 1.31 1.31 1.07 0.85 0.72 0.81 0.98 1.07 0.96 0.91 0.98 1.04 1.06 0.98 0.99 1.01 1.04 1.06 1.06
2.90 2.70 2.45 2.30 2.22 2.02 1.83 1.68 1.45 1.34 1.27 1.17 1.16 1.06 1.03 1.10 1.14 1.09 1.10 1.20 1.21 1.21 1.24 1.27 1.32 1.29 1.13 0.92 0.76 0.80 0.93 1.03 0.99 0.95 0.90 0.90 0.94 0.93 0.98 1.08 1.23 1.27 1.24
2.56 2.47 2.25 2.10 2.07 1.87 1.72 1.69 1.54 1.36 1.28 1.18 1.14 1.06 1.07 1.11 1.13 1.16 1.13 1.09 1.11 1.10 1.10 1.15 1.25 1.20 1.08 0.88 0.71 0.72 0.76 0.88 1.02 1.12 1.10 1.04 0.95 0.92 0.98 1.12 1.31 1.37 1.35
2.07 2.10 2.05 2.03 1.92 1.72 1.69 1.80 1.84 1.63 1.32 1.19 1.14 1.16 1.18 1.14 1.13 1.17 1.14 1.08 1.00 1.02 1.06 1.08 1.15 1.19 1.00 0.79 0.66 0.70 0.73 0.82 0.95 1.04 1.10 1.05 1.01 0.99 1.03 1.11 1.26 1.35 1.36
1.71 1.84 1.99 1.96 1.91 1.78 1.74 1.76 1.78 1.67 1.47 1.35 1.28 1.22 1.16 1.08 1.05 1.17 1.11 1.05 1.07 1.06 1.10 1.08 1.09 1.04 0.87 0.68 0.60 0.64 0.68 0.71 0.84 0.98 0.98 1.00 1.00 0.98 1.03 1.06 1.19 1.34 1.51
1.59 1.69 1.79 1.82 1.81 1.72 1.74 1.75 1.68 1.50 1.45 1.55 1.47 1.34 1.21 1.13 1.14 1.20 1.14 1.03 1.05 1.00 0.95 0.92 0.97 0.92 0.79 0.69 0.60 0.60 0.61 0.62 0.69 0.80 0.86 0.87 0.87 0.92 1.06 1.13 1.22 1.37 1.63
1.43 1.54 1.64 1.71 1.69 1.56 1.54 1.55 1.47 1.47 1.51 1.50 1.44 1.40 1.31 1.18 1.11 1.10 1.04 0.99 0.95 0.96 0.94 0.89 0.88 0.80 0.73 0.63 0.56 0.56 0.57 0.57 0.58 0.66 0.78 0.89 0.95 1.04 1.19 1.36 1.47 1.51 1.61
1.31 1.39 1.58 1.66 1.56 1.42 1.31 1.27 1.36 1.47 1.55 1.45 1.30 1.24 1.18 1.11 1.08 1.02 0.94 0.89 0.81 0.81 0.86 0.82 0.73 0.67 0.62 0.54 0.56 0.57 0.57 0.56 0.59 0.65 0.78 1.00 1.15 1.25 1.29 1.35 1.43 1.45 1.41
1.19 1.31 1.39 1.45 1.39 1.30 1.24 1.16 1.24 1.33 1.38 1.30 1.20 1.13 1.05 1.00 0.91 0.90 0.90 0.91 0.82 0.73 0.72 0.74 0.66 0.55 0.55 0.55 0.52 0.52 0.53 0.60 0.66 0.70 0.86 1.04 1.14 1.22 1.28 1.31 1.31 1.28 1.25